Location: Gerlach
(40.6516°N, 119.3568°W)
Time: 21:33:53
(UTC-08:00)

Tiros 1 despin weight - All Passes

Search period start: 29 January 2023 00:00
Search period end: 08 February 2023 00:00
Orbit: 589 x 636 km, 48.2° (Epoch: 29 January)

Date Brightness Start Highest point End Pass type
(mag) Time Alt. Az. Time Alt. Az. Time Alt. Az.
29 Jan - 01:37:05 10° WSW 01:39:13 13° SW 01:41:20 10° SSW night (unlit)
29 Jan - 17:21:32 10° SW 17:25:57 52° SE 17:30:20 10° ENE daylight
29 Jan - 19:03:08 10° W 19:07:29 45° NNW 19:11:46 10° NE visible
29 Jan - 20:45:38 10° WNW 20:49:37 30° N 20:53:33 10° ENE visible
29 Jan - 22:27:21 10° NW 22:31:42 51° NNE 22:35:59 10° E night (unlit)
30 Jan - 00:08:57 10° WNW 00:13:04 39° SW 00:17:09 10° SSE night (unlit)
30 Jan - 15:56:30 10° S 15:59:41 19° SE 16:02:50 10° E daylight
30 Jan - 17:36:07 10° WSW 17:40:41 90° ESE 17:45:10 10° ENE visible
30 Jan - 19:18:20 10° WNW 19:22:28 35° NNW 19:26:36 10° NE visible
30 Jan - 21:00:38 10° NW 21:04:42 33° N 21:08:43 10° ENE visible
30 Jan - 22:42:08 10° WNW 22:46:35 79° NNE 22:50:57 10° ESE night (unlit)
31 Jan - 00:24:16 10° W 00:27:36 21° SW 00:30:56 10° S night (unlit)
31 Jan - 16:10:04 10° SSW 16:14:12 34° SE 16:18:18 10° ENE daylight
31 Jan - 17:51:01 10° WSW 17:55:30 58° NNW 17:59:57 10° ENE visible
31 Jan - 19:33:31 10° WNW 19:37:32 31° N 19:41:31 10° ENE visible
31 Jan - 21:15:29 10° NW 21:19:43 41° NNE 21:23:54 10° E visible
31 Jan - 22:56:57 10° WNW 23:01:19 61° SW 23:05:37 10° SE night (unlit)
01 Feb - 00:41:04 10° WSW 00:42:01 11° SW 00:42:57 10° SW night (unlit)
01 Feb - 14:46:27 10° SSE 14:48:03 12° SE 14:49:39 10° ESE daylight
01 Feb - 16:24:19 10° SW 16:28:50 63° SE 16:33:17 10° ENE daylight
01 Feb - 18:06:08 10° W 18:10:27 41° NNW 18:14:43 10° NE visible
01 Feb - 19:48:36 10° WNW 19:52:37 31° N 19:56:35 10° ENE visible
01 Feb - 21:30:15 10° WNW 21:34:40 58° NNE 21:39:00 10° ESE visible
01 Feb - 23:11:58 10° WNW 23:15:56 33° SW 23:19:51 10° SSE night (unlit)
02 Feb - 14:58:53 10° S 15:02:28 23° SE 15:06:03 10° E daylight
02 Feb - 16:38:59 10° WSW 16:43:34 79° NNW 16:48:06 10° ENE daylight
02 Feb - 18:21:20 10° WNW 18:25:27 33° N 18:29:33 10° ENE visible
02 Feb - 20:03:33 10° NW 20:07:41 35° NNE 20:11:45 10° ENE visible
02 Feb - 21:45:01 10° WNW 21:49:29 89° SSW 21:53:53 10° ESE night (unlit)
02 Feb - 23:27:28 10° W 23:30:24 18° SW 23:33:20 10° S night (unlit)
03 Feb - 15:12:41 10° SSW 15:17:01 41° SE 15:21:18 10° ENE daylight
03 Feb - 16:53:58 10° W 16:58:25 52° NNW 17:02:50 10° NE daylight
03 Feb - 18:36:29 10° WNW 18:40:31 31° N 18:44:31 10° ENE visible
03 Feb - 20:18:21 10° NW 20:22:41 45° NNE 20:26:56 10° E visible
03 Feb - 21:59:52 10° WNW 22:04:11 51° SW 22:08:26 10° SE night (unlit)
04 Feb - 13:48:15 10° SSE 13:50:47 15° SE 13:53:19 10° E daylight
04 Feb - 15:27:05 10° SW 15:31:40 74° SSE 15:36:13 10° ENE daylight
04 Feb - 17:09:06 10° W 17:13:23 38° NNW 17:17:37 10° NE daylight
04 Feb - 18:51:31 10° WNW 18:55:35 32° N 18:59:37 10° ENE visible
04 Feb - 20:33:06 10° WNW 20:37:34 66° NNE 20:41:58 10° ESE visible
04 Feb - 22:14:58 10° W 22:18:44 27° SW 22:22:28 10° SSE night (unlit)
05 Feb - 14:01:20 10° SSW 14:05:14 27° SE 14:09:07 10° E daylight
05 Feb - 15:41:50 10° WSW 15:46:26 69° NNW 15:50:58 10° ENE daylight
05 Feb - 17:24:17 10° WNW 17:28:24 32° N 17:32:28 10° ENE daylight
05 Feb - 19:06:24 10° NW 19:10:37 37° NNE 19:14:47 10° E visible
05 Feb - 20:47:51 10° WNW 20:52:20 76° SSW 20:56:45 10° SE visible
05 Feb - 22:30:47 10° W 22:33:11 14° SW 22:35:32 10° SSW night (unlit)
06 Feb - 14:15:20 10° SW 14:19:48 50° SE 14:24:14 10° ENE daylight
06 Feb - 15:56:52 10° W 16:01:18 47° NNW 16:05:42 10° NE daylight
06 Feb - 17:39:23 10° WNW 17:43:28 31° N 17:47:28 10° ENE visible
06 Feb - 19:21:10 10° NW 19:25:34 50° NNE 19:29:54 10° E visible
06 Feb - 21:02:45 10° WNW 21:06:59 42° SW 21:11:08 10° SSE visible
07 Feb - 12:50:23 10° S 12:53:30 18° SE 12:56:37 10° E daylight
07 Feb - 14:29:51 10° WSW 14:34:28 86° SSE 14:39:04 10° ENE daylight
07 Feb - 16:12:01 10° W 16:16:16 36° NNW 16:20:29 10° NE daylight
07 Feb - 17:54:21 10° WNW 17:58:30 33° N 18:02:35 10° ENE visible
07 Feb - 19:35:54 10° WNW 19:40:25 76° NNE 19:44:52 10° ESE visible
07 Feb - 21:17:58 10° W 21:21:29 23° SW 21:24:57 10° S visible
